Tracking 19570 objects as of 22-Feb-2019
HD Live streaming from Space Station
objects crossing your sky now

COSMOS 394

Track COSMOS 394 now!
10-day predictions
COSMOS 394 is classified as:


NORAD ID: 4922
Int'l Code: 1971-010A
Perigee: 481.0 km
Apogee: 486.4 km
Inclination: 65.8 °
Period: 94.1 minutes
Semi major axis: 6854 km
RCS: 1.2944 m2 (large)
Launch date: February 9, 1971
Source: Commonwealth of Independent States (former USSR) (CIS)
Launch site: PLESETSK MISSILE AND SPACE COMPLEX (PKMTR)
aabbcc
Your satellite tracking list
Your tracking list is empty




NASA's NSSDC Master Catalog

Two Line Element Set (TLE):
1  4922U 71010A   19052.67527905  .00000112  00000-0  10970-4 0  9999
2  4922  65.8251 171.0185 0003980  15.0110 345.1148 15.29749093647481
Source of the keplerian elements: AFSPC